Location: Seminole
(32.7190°N, 102.6440°W)
Time: 08:25:19
(UTC-05:00)

Meteor 2-10 - Visible Passes

Search period start: 25 October 2014 00:00
Search period end: 03 November 2014 23:00
Orbit: 740 x 868 km, 81.2° (Epoch: 24 October)

Date Brightness Start Highest point End Pass type
(mag) Time Alt. Az. Time Alt. Az. Time Alt. Az.
28 Oct 7.0 07:27:10 10° NE 07:30:25 15° ENE 07:33:37 10° ESE visible
29 Oct 6.4 21:37:32 10° SSW 21:38:18 14° SSW 21:38:18 14° SSW visible
30 Oct 5.0 21:11:34 10° S 21:14:39 36° S 21:14:39 36° S visible
31 Oct 4.1 20:45:50 10° S 20:51:07 59° E 20:51:20 59° E visible
31 Oct 6.9 22:30:47 10° W 22:32:33 13° W 22:32:33 13° W visible
01 Nov 6.3 07:24:14 10° NNE 07:29:09 29° ENE 07:33:56 10° SE visible
01 Nov 4.5 20:20:22 10° SSE 20:25:21 39° E 20:28:41 20° NE visible
01 Nov 6.4 22:03:22 10° WSW 22:07:23 21° WNW 22:09:59 15° NW visible
02 Nov 6.9 05:59:03 10° NNE 06:03:07 20° ENE 06:07:05 10° ESE visible
02 Nov 5.0 18:55:12 10° SE 18:59:38 26° E 19:04:10 10° NE visible
02 Nov 5.8 20:36:35 10° SW 20:41:21 31° WNW 20:46:17 10° NNW visible
03 Nov 7.1 05:34:26 10° NE 05:37:00 13° ENE 05:39:33 10° E visible
03 Nov 5.5 18:30:29 10° SE 18:33:57 17° E 18:37:29 10° NE visible
03 Nov 5.1 20:10:10 10° SSW 20:15:23 46° WNW 20:20:47 10° N visible
